EW8288 Weather Reports


time (UTC)temp
C
wind
direction
speed
KPH
gust
KPH
rain 1hr
cm
rain 24hr
cm
rain mn
cm
humidity
%
barometer
mb
20260503211225 17 217 1.6 16.1 0.00 0.00 0.00 45 1013.5
20260503210442 18 192 1.6 9.7 0.00 0.00 0.00 44 1013.5
20260503205226 18 194 0.0 8.0 0.00 0.00 0.00 44 1013.5
20260503204226 18 155 4.8 16.1 0.00 0.00 0.00 43 1013.9
20260503203442 18 189 3.2 12.9 0.00 0.00 0.00 43 1013.9
20260503202225 18 187 0.0 9.7 0.00 0.00 0.00 43 1013.9
20260503201228 18 185 3.2 9.7 0.00 0.00 0.00 42 1013.9
20260503200440 18 175 1.6 9.7 0.00 0.00 0.00 41 1014.2
20260503195442 19 194 3.2 11.3 0.00 0.00 0.00 41 1014.2
20260503194441 19 240 1.6 11.3 0.00 0.00 0.00 40 1014.2
20260503193228 19 230 9.7 14.5 0.00 0.00 0.00 40 1013.9
20260503192224 20 178 3.2 14.5 0.00 0.00 0.00 39 1013.9
20260503191224 20 186 0.0 14.5 0.00 0.00 0.00 39 1013.9
20260503190441 20 186 0.0 14.5 0.00 0.00 0.00 39 1013.9
20260503185227 20 184 0.0 8.0 0.00 0.00 0.00 39 1013.9
20260503184224 20 173 0.0 14.5 0.00 0.00 0.00 39 1013.9
20260503183225 20 190 0.0 22.5 0.00 0.00 0.00 38 1013.9
20260503182227 20 170 0.0 14.5 0.00 0.00 0.00 38 1013.5
20260503181225 20 180 3.2 16.1 0.00 0.00 0.00 38 1013.5
20260503180225 21 190 0.0 12.9 0.00 0.00 0.00 37 1013.5
20260503175440 21 209 0.0 9.7 0.00 0.00 0.00 37 1013.5
20260503174225 21 190 0.0 16.1 0.00 0.00 0.00 36 1013.5
20260503173227 22 196 0.0 12.9 0.00 0.00 0.00 36 1013.5
20260503172440 22 177 0.0 12.9 0.00 0.00 0.00 36 1013.5
20260503171226 22 170 3.2 20.9 0.00 0.00 0.00 35 1013.5
20260503170225 22 189 0.0 17.7 0.00 0.00 0.00 35 1013.5
20260503150226 25 207 0.0 16.1 0.00 0.00 0.00 31 1014.2
20260503131226 25 217 1.6 19.3 0.00 0.00 0.00 32 1015.2
20260503130226 25 162 0.0 9.7 0.00 0.00 0.00 33 1015.6
20260503110227 23 243 19.3 19.3 0.00 0.00 0.00 37 1016.9
20260503100228 21 224 0.0 20.9 0.00 0.00 0.00 39 1017.6
20260503090226 20 171 0.0 11.3 0.00 0.00 0.00 44 1017.9
20260503081441 18 213 4.8 9.7 0.00 0.00 0.00 49 1018.3
20260503080228 17 190 0.0 16.1 0.00 0.00 0.00 48 1018.3
20260503072439 16 235 0.0 16.1 0.00 0.00 0.00 53 1017.9
20260503071227 15 175 0.0 14.5 0.00 0.00 0.00 54 1017.9
20260503070227 15 178 3.2 19.3 0.00 0.00 0.00 54 1017.9
20260503060226 13 184 0.0 8.0 0.00 0.00 0.00 59 1017.9
20260503054442 11 49 0.0 0.0 0.00 0.00 0.00 70 1017.9
20260503053226 10 46 0.0 0.0 0.00 0.00 0.00 72 1017.9
20260503052227 9 46 0.0 0.0 0.00 0.00 0.00 74 1018.3
20260503051227 8 46 0.0 0.0 0.00 0.00 0.00 77 1018.3
20260503050228 7 46 0.0 0.0 0.00 0.00 0.00 79 1017.9
20260503045225 7 46 0.0 0.0 0.00 0.00 0.00 82 1017.9
20260503044225 6 46 0.0 0.0 0.00 0.00 0.00 85 1017.9
20260503043224 5 46 0.0 0.0 0.00 0.00 0.00 87 1017.9
20260503042226 5 46 0.0 0.0 0.00 0.00 0.00 87 1017.9
20260503041226 4 46 0.0 0.0 0.00 0.00 0.00 87 1017.9
20260503040227 4 46 0.0 0.0 0.00 0.00 0.00 86 1017.9
20260503035224 4 46 0.0 0.0 0.00 0.00 0.00 86 1017.9
20260503034226 4 46 0.0 0.0 0.00 0.00 0.00 86 1017.9
20260503033440 4 46 0.0 0.0 0.00 0.00 0.00 86 1017.9
20260503032226 4 46 0.0 0.0 0.00 0.00 0.00 86 1017.9
20260503031224 4 46 0.0 0.0 0.00 0.00 0.00 86 1017.9
20260503030226 4 46 0.0 0.0 0.00 0.00 0.00 86 1017.9
20260503025226 4 46 0.0 0.0 0.00 0.00 0.00 85 1017.9
20260503024226 4 46 0.0 0.0 0.00 0.00 0.00 85 1017.6
20260503023226 5 46 0.0 0.0 0.00 0.00 0.00 85 1017.6
20260503022224 5 46 0.0 0.0 0.00 0.00 0.00 84 1017.6
20260503021226 5 46 0.0 0.0 0.00 0.00 0.00 84 1017.6
20260503020225 5 46 0.0 0.0 0.00 0.00 0.00 84 1017.6
20260503015438 5 46 0.0 0.0 0.00 0.00 0.00 83 1017.6
20260503014224 5 46 0.0 0.0 0.00 0.00 0.00 83 1017.6
20260503013225 5 46 0.0 0.0 0.00 0.00 0.00 82 1017.6
20260503012441 6 46 0.0 0.0 0.00 0.00 0.00 82 1017.6
20260503011226 6 46 0.0 0.0 0.00 0.00 0.00 82 1017.9
20260503010225 6 46 0.0 0.0 0.00 0.00 0.00 82 1017.9
20260503005224 6 46 0.0 0.0 0.00 0.00 0.00 81 1017.9
20260503004225 6 46 0.0 0.0 0.00 0.00 0.00 80 1017.9
20260503003227 6 46 0.0 0.0 0.00 0.00 0.00 80 1017.9
20260503002224 6 46 0.0 0.0 0.00 0.00 0.00 80 1017.9
20260503001224 6 46 0.0 0.0 0.00 0.00 0.00 79 1017.9
20260503000223 6 46 0.0 0.0 0.00 0.00 0.00 79 1018.3
20260502235223 7 46 0.0 0.0 0.00 0.00 0.00 79 1018.3
20260502234226 7 46 0.0 0.0 0.00 0.00 0.00 79 1018.3
20260502233226 7 46 0.0 0.0 0.00 0.00 0.00 78 1018.3
20260502232225 7 46 0.0 0.0 0.00 0.00 0.00 78 1018.3
20260502231226 7 46 0.0 0.0 0.00 0.00 0.00 76 1018.6
20260502230234 7 46 0.0 0.0 0.00 0.00 0.00 77 1018.3
20260502225226 7 46 0.0 0.0 0.00 0.00 0.00 76 1018.6
20260502224439 7 46 0.0 0.0 0.00 0.00 0.00 75 1018.6
20260502223226 7 46 0.0 0.0 0.00 0.00 0.00 74 1018.6
20260502222227 8 46 0.0 0.0 0.00 0.00 0.00 74 1018.6
20260502221226 8 46 0.0 0.0 0.00 0.00 0.00 73 1018.6
20260502220224 8 46 0.0 0.0 0.00 0.00 0.00 71 1018.6
20260502215227 8 46 0.0 0.0 0.00 0.00 0.00 70 1018.6
20260502214441 8 46 0.0 0.0 0.00 0.00 0.00 68 1018.6
20260502213440 9 46 0.0 0.0 0.00 0.00 0.00 66 1019.0
20260502212228 10 46 0.0 0.0 0.00 0.00 0.00 65 1018.6